Other Surface Observations
Issued by NWS

Home | Current Version | Previous Version | Text Only | Print | Product List | Glossary On
Versions: 1 2 3 4 5 6 7 8 9 10 11 12 13 14 15 16 17 18 19 20 21 22 23 24 25 26 27 28 29 30 31 32 33 34 35 36 37 38 39 40 41 42 43 44 45 46 47 48 49 50
000
SXUS52 KTAE 300519
OSOTAE
OSOTAE
North Florida/South Alabama/Southwest Georgia Weather Roundup
National Weather Service Tallahassee Florida
100 AM EDT MON MAY 30 2016

Note: "fair" indicates few or no clouds below 12,000 feet with no
significant weather and/or obstructions to visibility.

!FLZ017-115-028-034-025-300600
...North Florida...

CITY           SKY/WX    TMP DP  RH WIND       PRES   REMARKS
TALLAHASSEE    CLEAR     75  68  78 CALM      30.02F
APALACHICOLA   CLEAR     74  72  93 NW3       30.02F
PERRY          CLEAR     72  70  94 CALM      30.02F
CROSS CITY       N/A     72  69  90 CALM      30.01F
JACKSONVILLE   CLEAR     72  67  84 CALM      30.00F
$$

!FLZ112-006-005-002-011-300600
...Florida Panhandle...

CITY           SKY/WX    TMP DP  RH WIND       PRES   REMARKS
MARIANNA       CLEAR     73  71  93 CALM      30.02F
BONIFAY        NOT AVBL
PANAMA CITY NW NOT AVBL
TYNDALL AFB    CLEAR     74  70  87 W3        30.03F
TYND DRONE APT FAIR      77  72  85 W6        30.03F
DE FUNIAK SPR  FAIR      72  67  85 W3        30.05S
EGLIN AFB      PTCLDY    74  67  79 NW2       30.03F
DESTIN         CLEAR     81  71  71 CALM      30.03F
HURLBURT       MOCLDY    72  68  88 NW3       30.02F
CRESTVIEW      CLEAR     69  67  93 CALM      30.05F
PENSACOLA      PTCLDY    77  69  76 NW5       30.04S
$$

!ALZ063-066-300600
...South Alabama...

CITY           SKY/WX    TMP DP  RH WIND       PRES   REMARKS
DOTHAN         CLEAR     77  67  71 W5        30.06F
OZARK CAIRNS   CLEAR     73  69  87 W3        30.03F
FT RUCKER HELI CLEAR     71  68  90 CALM      30.02F
RUCKER HELI 3  NOT AVBL
RUCKER HELI 2  NOT AVBL
FLORALA APT    CLEAR     70  67  90 CALM      30.06S
ANDALUSIA      CLEAR     75  68  78 CALM      30.04S
TROY           CLEAR     70  68  93 CALM      30.04F
EUFALA         FAIR      69  65  86 CALM      30.01F
MOBILE         PTCLDY    72  70  93 W5        30.07R
$$

!GAZ120>161-300600
...Southwest and South Central Georgia...

CITY           SKY/WX    TMP DP  RH WIND       PRES   REMARKS
THOMASVILLE    MOCLDY    72  64  78 CALM      30.03F
BAINBRIDGE     CLEAR     77  70  78 SW5       30.03S
MOODY AFB      PTCLDY    72  66  82 NE1       30.00F
VALDOSTA       CLEAR     70  66  87 CALM      30.01F
MOULTRIE       PTCLDY    73  68  83 CALM      30.03S
BLAKELY        MOCLDY    73  68  83 CALM      30.02F
ALBANY         CLOUDY    75  65  70 CALM      30.03F
TIFTON         FAIR      72  69  90 CALM      30.02F
FITZGERALD     FAIR      70  66  89 CALM      30.05F FOG
CORDELE        MOCLDY    73  68  86 CALM      30.04F
AMERICUS       FAIR      70  70 100 CALM      30.06S
HOMERVILLE     CLOUDY    70  68  94 CALM      30.02F
$$

!GMZ750-755-770-775-300600
...Coastal and Buoy Obs...

STATION/POSITION TIME  TEMP    WIND        PRES    VSBY  WAVE
                       AIR SEA DIR/SP/G                  HT/PER
                 (UTC) (F)     (DEG/KT/KT) (MB)    (MI)  (FT/S)
KEATON BEACH     0500   81     300/ 10/ 13 1016.1F
CEDAR KEY        0500   80     320/  4/  5 1016.9F
C TOWER          0500   79     310/ 12/ 13 1017.3F
APALACHICOLA BUO 0450   79 80  300/  6/  8 1016.9F         1/ 6
PANAMA CITY BUOY 0450   80 81  310/  8/ 10 1017.6F         1/ 5
MOBILE BUOY      0500   78 79  230/  6/  6 1017.6R
ORANGE BCH AL BU 0450   81 81     CALM     1016.7S         1/ 5
$$




USA.gov is the U.S. government's official web portal to all federal, state and local government web resources and services.